Location: Clinton NY
(43.0598°N, 75.3602°W)
Time: 15:54:46
(UTC-04:00)

Daily predictions for brighter satellites

Satellite Brightness Start Highest point End
(mag) Time Altitude Azimuth Time Altitude Azimuth Time Altitude Azimuth
Envisat 3.4 20:16:41 10° SE 20:21:30 45° ENE 20:26:20 10° N
Lacrosse 5 rocket 2.3 20:18:29 10° WNW 20:21:54 38° SW 20:25:28 10° SSE
Cosmos 1939 Rocket 3.9 20:19:25 10° SE 20:22:48 27° ENE 20:26:09 10° N
Cosmos 1536 3.9 20:19:53 10° SE 20:23:14 25° E 20:26:35 10° NE
Cosmos 44 4.2 20:29:26 10° NW 20:33:39 44° WSW 20:38:01 10° S
Cosmos 1655 Rocket 4.1 20:28:14 10° S 20:34:31 86° E 20:40:54 10° N
Meteor 2-4 Rocket 4.0 20:30:26 10° N 20:35:51 51° ENE 20:41:24 10° SSE
CZ-2D R/B 3.5 20:34:10 10° S 20:38:01 71° WSW 20:41:53 10° NNW
Okean 2 Rocket 4.0 20:33:37 10° SSW 20:38:02 56° W 20:42:30 10° N
ATLAS 2AS CENTAUR R/B 3.3 20:32:15 10° S 20:39:27 47° ESE 20:47:04 10° NE
Meteor 1-13 Rocket 4.4 20:38:30 10° N 20:44:31 84° E 20:50:27 10° S
BREEZE-M DEB (TANK) 2.6 20:42:06 10° SW 20:44:52 60° SE 20:52:15 10° ENE
CZ-4B DEB 4.5 20:43:53 12° E 20:45:00 15° ENE 20:46:43 10° NNE
BREEZE-M DEB (TANK) 3.8 20:43:51 10° WNW 20:47:04 54° SSW 20:59:04 11° SE
NOSS 2-3 (E) 3.8 20:45:21 10° SSW 20:49:58 66° ESE 20:55:21 10° NE
Helios 1B rocket 3.3 20:50:26 10° NE 20:54:01 28° E 20:57:35 10° SSE
Cosmos 839 Rocket 4.5 20:49:03 10° SW 20:55:13 66° NW 21:01:33 10° NNE
Resurs 1-3 4.2 20:52:08 10° S 20:56:27 59° W 21:00:48 10° NNW
USA 186 2.6 20:53:18 10° S 20:56:36 54° W 20:59:56 10° NNW
Lacrosse 5 1.9 20:53:26 10° SSW 20:58:21 54° SE 21:03:19 10° NE
Cosmos 1850 Rocket 4.1 20:54:09 10° NNW 20:59:31 86° WSW 21:04:48 10° SSE
Cosmos 1420 Rocket 4.4 20:54:40 10° SSW 20:59:48 66° WNW 21:05:00 10° NNE
Atlas Centaur 2 4.0 20:57:07 10° WSW 21:03:57 29° SSW 21:08:53 15° SE
SL-8 R/B 4.2 21:01:54 10° WNW 21:06:37 55° NNE 21:10:16 16° E
SeaSat 1 2.4 21:02:37 10° NNE 21:07:35 74° ESE 21:12:30 10° SSW
ARGOS 4.1 21:08:23 19° ESE 21:11:19 31° ENE 21:15:56 10° N
Cosmos 1607 4.0 21:06:44 10° NNW 21:13:15 88° ENE 21:18:18 18° SSE
Cosmos 220 Rocket 3.9 21:13:19 10° NNW 21:17:39 80° ENE 21:20:29 21° SSE
Okean 1 Rocket 2.9 21:13:31 10° S 21:17:50 74° E 21:22:14 10° NNE
Cosmos 1300 Rocket 3.7 21:14:31 10° SSW 21:18:47 72° W 21:23:07 10° N
Cosmos 2263 Rocket 2.4 21:13:22 10° NNW 21:19:03 74° WSW 21:23:58 14° SSE
Cosmos 1025 Rocket 3.1 21:16:41 10° N 21:20:54 57° E 21:23:14 25° SSE
Cosmos 2278 Rocket 4.2 21:18:58 10° NNE 21:21:55 14° NE 21:24:48 10° ENE
Okean 2 3.6 21:18:59 10° N 21:22:59 50° E 21:24:45 29° SE
NOSS 2-3 (C) 4.3 21:18:58 10° SW 21:23:41 69° NW 21:29:14 10° NNE
Cosmos 2322 Rocket 2.9 21:18:11 10° SW 21:23:47 57° WNW 21:29:25 10° NNE
YAOGAN 6 2.6 21:22:13 18° S 21:24:43 76° WSW 21:28:15 10° NNW
Meteor 1-11 Rocket 4.4 21:19:20 10° SSW 21:25:05 58° WNW 21:30:43 10° N
Cosmos 1844 Rocket 3.7 21:20:55 10° N 21:25:57 31° NE 21:28:30 22° E
Tiangong 1 1.8 21:24:05 10° W 21:26:37 32° SSW 21:26:47 31° SSW
Cosmos 1818 4.4 21:29:42 27° ESE 21:29:54 27° ESE 21:34:25 10° NE
Okean 1-7 Rocket 3.6 21:26:00 10° N 21:30:31 70° E 21:32:58 26° SSE
Cosmos 2266 Rocket 4.1 21:25:55 10° SSW 21:31:57 76° W 21:38:01 10° N
Resurs 01 Rocket 3.9 21:29:07 10° SSW 21:32:39 23° W 21:36:13 10° NW
Spot 1 4.4 21:29:50 19° SSE 21:33:37 89° ENE 21:38:40 10° NNW
USA 238 DEB 3.9 21:28:50 10° NNW 21:35:55 66° NE 21:39:57 28° SE
USA 238 3.9 21:28:57 10° NNW 21:36:01 66° NE 21:40:03 28° SE
SL-16 R/B 3.3 21:30:36 10° SW 21:36:02 46° WNW 21:41:30 10° NNE
Abrixas rocket 3.5 21:33:00 10° WNW 21:36:04 35° N 21:37:17 25° NE
Cosmos 1515 3.7 21:33:08 10° N 21:36:55 61° E 21:37:54 43° SE
Cosmos 2315 Rocket 3.9 21:32:21 10° N 21:38:39 84° E 21:43:24 19° S
Terra 3.6 21:38:02 15° ENE 21:38:42 16° ENE 21:41:29 10° NNE
Cosmos 1975 3.5 21:40:38 34° E 21:40:38 34° E 21:44:06 10° NNE
MetOp-B 4.2 21:38:09 29° SE 21:40:48 63° ENE 21:46:06 10° N
Cosmos 2219 Rocket 3.5 21:42:46 21° E 21:42:46 21° E 21:45:54 10° NE
EXPRESS MD2 4.4 21:40:23 10° W 21:43:16 41° N 21:48:32 10° ENE
Nadezhda 2 Rocket 4.4 21:38:06 10° S 21:44:14 81° E 21:50:30 10° N
Helios 1A 3.6 21:41:23 19° S 21:44:18 55° W 21:48:30 10° NNW
Cosmos 2322 3.6 21:41:34 10° SSW 21:47:12 77° ESE 21:52:54 10° NNE
ERS-1 Rocket 2.9 21:46:40 31° SSE 21:49:11 87° ENE 21:54:14 10° NNW
ATLAS 3B R/B 2.5 21:43:59 10° NW 21:50:46 88° NE 21:53:55 34° SE
USA 245 3.9 21:51:09 42° SE 21:52:27 57° ENE 21:56:35 10° N
Cosmos 1500 3.1 21:52:07 58° SSE 21:52:42 71° E 21:56:34 10° NNE
Meteor 1-29 3.1 21:49:20 10° N 21:52:45 69° WNW 21:54:01 35° SSW
Cosmos 2360 Rocket 2.3 21:50:44 10° SSW 21:56:22 75° WNW 22:02:01 10° NNE
COSMOS 2428 2.8 21:55:48 32° SSE 21:58:09 52° ESE 22:03:41 10° NE
Cosmos 1745 Rocket 4.2 22:01:11 40° SE 22:02:33 46° E 22:08:23 10° NNE
Cosmos 1844 4.2 21:59:02 10° NNW 22:04:31 47° ENE 22:05:53 39° E
H-2A R/B 2.0 22:08:23 53° ESE 22:09:19 64° ENE 22:14:15 10° N
Cosmos 1892 Rocket 3.4 22:05:26 10° N 22:09:52 87° E 22:10:26 68° SSE
Cosmos 2333 Rocket 3.3 22:13:04 27° ENE 22:13:04 27° ENE 22:16:24 10° NE
NOSS 3-2 (C) 4.4 22:05:29 10° NNW 22:12:45 53° NE 22:16:02 34° ESE
Cosmos 1238 Rocket 4.0 22:06:12 10° N 22:12:58 88° W 22:15:42 37° S
Cosmos 1437 Rocket 4.1 22:19:12 30° NE 22:19:12 30° NE 22:21:28 10° NNE
Cosmos 2333 4.0 22:16:47 44° S 22:18:34 70° ESE 22:24:10 10° NNE
Cosmos 1302 Rocket 4.0 22:19:34 27° SSW 22:22:31 82° WNW 22:27:49 10° NNE
Cosmos 1544 Rocket 3.5 22:24:22 79° SW 22:24:36 85° WNW 22:29:05 10° N
Cosmos 1486 Rocket 4.0 22:20:00 10° NNW 22:25:14 74° WSW 22:26:11 58° S
Aureole 3 Rocket 4.4 22:19:04 10° N 22:27:32 76° W 22:30:15 38° S
Cosmos 2237 Rocket 3.7 22:30:37 21° ENE 22:30:37 21° ENE 22:32:55 10° NE
Cosmos 405 4.0 22:28:31 46° WNW 22:28:31 46° WNW 22:31:46 10° N
ATLAS 2AS CENTAUR R/B 3.9 22:22:57 10° WSW 22:30:29 50° NW 22:38:23 10° NNE
GP-B 4.2 22:29:36 10° NNE 22:32:32 34° NE 22:32:32 34° NE
SPOT 5 3.1 22:33:36 56° SW 22:34:14 62° WSW 22:38:52 10° NNW
BREEZE M DEB (TANK) 3.4 22:29:26 10° WSW 22:33:38 38° WSW 22:33:38 38° WSW
Cosmos 1241 Rocket 4.5 22:29:14 10° SSW 22:35:48 86° WNW 22:42:19 10° NNE
Cosmos 1455 Rocket 3.2 22:37:04 71° WNW 22:37:04 71° WNW 22:41:29 10° N
Cosmos 1666 4.3 22:39:56 28° NNE 22:39:56 28° NNE 22:41:54 10° NNE
CENTAUR R/B 4.0 22:32:48 10° NNW 22:39:55 38° NE 22:43:21 27° E
NOSS 3-4 (A) 3.6 22:41:27 55° E 22:41:27 55° E 22:47:05 10° NE
NOSS 3-4 (C) 3.6 22:41:37 54° E 22:41:37 54° E 22:47:11 10° NE
Lacrosse 5 3.4 22:36:53 10° W 22:41:32 35° NNW 22:46:11 10° NE
SL-8 R/B 4.4 22:44:32 10° WNW 22:48:13 45° WSW 22:48:13 45° WSW
ARGOS 4.3 22:49:54 31° SW 22:51:25 37° W 22:56:23 10° NNW
Nadezhda 1 Rocket 4.0 22:45:42 10° N 22:52:03 80° W 22:53:09 62° SSW
Timation 1 Rocket 4.4 22:47:06 10° NNW 22:53:03 64° ENE 22:53:16 64° ENE
Cosmos 1743 4.3 22:56:16 34° NNW 22:56:16 34° NNW 22:58:42 10° N
Landsat 7 4.2 23:01:05 60° WNW 23:01:05 60° WNW 23:05:19 10° NNW
Meteor 1-21 4.1 22:55:33 10° NNW 23:01:12 82° W 23:01:12 82° W
DMSP B5D2-2 4.1 22:57:32 10° N 23:02:48 74° WNW 23:02:48 74° WNW
Cosmos 1354 Rocket 4.2 22:57:41 10° NNW 23:02:44 66° W 23:02:44 66° W
Cosmos 2278 Rocket 2.3 23:01:21 10° NNW 23:06:39 70° NNE 23:06:39 70° NNE
Cosmos 1844 Rocket 3.5 23:04:38 10° NW 23:09:57 42° WSW 23:10:09 42° WSW
Cosmos 1709 Rocket 3.9 23:10:41 72° ENE 23:10:41 72° ENE 23:16:33 10° N
Cosmos 2181 Rocket 4.1 23:04:25 10° N 23:10:38 63° ENE 23:10:38 63° ENE
Cosmos 1818 4.4 23:10:06 23° WSW 23:13:11 49° NW 23:18:30 10° NNE
Terra 2.6 23:16:55 50° NW 23:16:55 50° NW 23:20:40 10° NNW
H-2A R/B 3.5 23:23:50 35° N 23:23:50 35° N 23:26:27 10° NNW
NOSS 3-2 (A) 4.2 23:17:21 10° NW 23:24:43 56° WSW 23:25:38 53° SW
Cosmos 2219 Rocket 2.8 23:24:26 51° W 23:25:08 54° WNW 23:30:41 10° NNE
CZ-2C R/B 4.5 23:20:48 10° NE 23:22:55 20° NE 23:22:55 20° NE
Meteor 2-9 Rocket 4.5 23:27:37 67° NW 23:27:37 67° NW 23:32:47 10° N
SL-16 R/B 3.8 23:39:45 25° NE 23:39:45 25° NE 23:42:09 10° NE
ATLAS 3B R/B 4.5 23:36:31 10° WNW 23:40:28 17° WSW 23:41:11 16° WSW
H-2A R/B 4.2 23:49:01 15° W 23:49:08 15° W 23:52:05 10° NW
NOSS 0 Rocket 4.4 23:51:55 53° WNW 23:52:20 54° WNW 23:58:28 10° NNE
ATLAS CENTAUR R/B 4.1 23:52:36 10° NNW 23:53:18 14° NNW 23:53:18 14° NNW
